STARLINK-1329 (45531 NORAD) Tracking and Keplerian Element Data

This shows tracking and keplerian element data for the satellite.

Feedback or suggestion? Click here.




ElementValue
Catalog45531
NameSTARLINK-1329
Epoch Orbit546
Epoch Day144.16667824
Epoch Year2020
RAAN250.6792
Inclination52.997
Eccentricity0.0001962
Argument of Perigee315.8522
Mean Anonmoly281.8512
Mean Motion15.4484705
Decay Rate0.0329257
L11 45531U 20025A 20144.16667824 .03292570 00000-0 60178-1 0 9999
L22 45531 52.9970 250.6792 0001962 315.8522 281.8512 15.44847050 5467

Live tracking and technical data element details for STARLINK-1329 (NORAD 45531). STARLINK-1329 can be tracked NOW for your location showing map with azimuth and elevation plus other details from your city location.

Track the satellite on the map from your city or location and see movement details for azimuth, elevation, latitude, longitude, range, height, and movement on the map or in text.







IsCatalogInMostPopularTable: catalog: 45531, numindb: 10
Update: records affected: 1



GetName: 45531 STARLINK-1329

Hit Count: updated at: Mon, 25 May 2020 08:00:11 GMT